EW9070 Weather Reports


Display with metric or nautical units.
time (UTC)temp
F
wind
direction
speed
MPH
gust
MPH
rain 1hr
in
rain 24hr
in
rain mn
in
humidity
%
barometer
mb
20191019063123 46 281 0.0 0.0 0.00 0.00 0.00 90 1018.8
20191019061719 46 281 0.0 0.0 0.00 0.00 0.00 89 1018.8
20191019060257 46 281 0.0 0.0 0.00 0.00 0.00 89 1018.9
20191019054710 47 281 0.0 0.0 0.00 0.00 0.00 88 1018.9
20191019053232 47 281 0.0 0.0 0.00 0.00 0.00 88 1018.9
20191019051641 48 281 0.0 0.0 0.00 0.00 0.00 86 1018.6
20191019050130 49 281 0.0 0.0 0.00 0.00 0.00 86 1018.5
20191019044706 49 281 0.0 0.0 0.00 0.00 0.00 85 1018.4
20191019043322 50 281 0.0 0.0 0.00 0.00 0.00 84 1018.4
20191019041633 50 281 0.0 0.0 0.00 0.00 0.00 84 1018.3
20191019040152 51 281 0.0 1.0 0.00 0.00 0.00 84 1018.1
20191019034646 52 281 0.0 0.0 0.00 0.00 0.00 81 1018.1
20191019033151 53 281 0.0 0.0 0.00 0.00 0.00 80 1017.9
20191019031625 54 281 0.0 2.0 0.00 0.00 0.00 82 1017.7
20191019030132 54 277 0.0 1.0 0.00 0.00 0.00 80 1017.6
20191019024606 55 277 0.0 0.0 0.00 0.00 0.00 79 1017.6
20191019023210 56 277 0.0 2.0 0.00 0.00 0.00 77 1017.4
20191019021627 57 277 0.0 0.0 0.00 0.00 0.00 74 1017.2
20191019020136 59 277 0.0 1.0 0.00 0.00 0.00 72 1016.9
20191019014651 60 277 0.0 1.0 0.00 0.00 0.00 72 1016.8
20191019013156 61 277 0.0 1.0 0.00 0.00 0.00 70 1016.8
20191019011625 63 292 0.0 2.0 0.00 0.00 0.00 66 1016.9
20191019010137 65 318 0.0 3.0 0.00 0.00 0.00 63 1016.9
20191019004650 65 306 0.0 4.0 0.00 0.00 0.00 62 1017.0
20191019003159 66 334 2.0 9.0 0.00 0.00 0.00 60 1016.9
20191019001715 67 312 2.0 10.0 0.00 0.00 0.00 59 1016.9
20191019000110 68 355 3.0 10.0 0.00 0.00 0.00 58 1016.9
20191018234610 68 284 3.0 8.0 0.00 0.00 0.00 59 1016.9
20191018233219 68 288 3.0 7.0 0.00 0.00 0.00 58 1017.0
20191018231720 68 296 3.0 9.0 0.00 0.00 0.00 56 1017.1
20191018230149 68 340 3.0 11.0 0.00 0.00 0.00 56 1017.1
20191018224615 68 237 6.0 12.0 0.00 0.00 0.00 57 1017.3
20191018223100 68 320 2.0 8.0 0.00 0.00 0.00 58 1017.4
20191018221545 67 306 2.0 9.0 0.00 0.00 0.00 60 1017.3
20191018220129 67 291 3.0 10.0 0.00 0.00 0.00 60 1017.4
20191018214611 66 284 6.0 11.0 0.00 0.00 0.00 59 1017.6
20191018213106 67 256 6.0 13.0 0.00 0.00 0.00 57 1017.6
20191018211710 68 302 5.0 10.0 0.00 0.00 0.00 57 1017.5
20191018210125 67 279 6.0 13.0 0.00 0.00 0.00 62 1017.6
20191018204628 68 328 5.0 12.0 0.00 0.00 0.00 62 1017.6
20191018203111 67 246 5.0 9.0 0.00 0.00 0.00 63 1017.8
20191018201552 67 275 2.0 10.0 0.00 0.00 0.00 61 1018.0
20191018200047 67 235 6.0 10.0 0.00 0.00 0.00 64 1018.3
20191018194538 69 255 3.0 9.0 0.00 0.00 0.00 60 1018.3
20191018193029 67 51 0.0 5.0 0.00 0.00 0.00 57 1018.4
20191018191518 66 24 1.0 6.0 0.00 0.00 0.00 58 1018.6
20191018190022 65 5 1.0 5.0 0.00 0.00 0.00 59 1018.6
20191018184532 65 15 2.0 8.0 0.00 0.00 0.00 60 1018.8
20191018183006 64 306 1.0 6.0 0.00 0.00 0.00 68 1019.3
20191018181501 63 98 0.0 2.0 0.00 0.00 0.00 69 1019.4
20191018180241 62 93 1.0 4.0 0.00 0.00 0.00 69 1019.3
20191018174631 60 128 0.0 1.0 0.00 0.00 0.00 71 1019.2
20191018173350 59 129 0.0 1.0 0.00 0.00 0.00 73 1019.3
20191018171650 59 129 0.0 2.0 0.00 0.00 0.00 72 1019.4
20191018170133 58 132 0.0 1.0 0.00 0.00 0.00 74 1019.5
20191018164617 56 360 0.0 0.0 0.00 0.00 0.00 75 1019.5
20191018163118 55 360 0.0 0.0 0.00 0.00 0.00 77 1019.4
20191018161638 54 360 0.0 0.0 0.00 0.00 0.00 78 1019.4
20191018160113 53 360 0.0 1.0 0.00 0.00 0.00 79 1019.2
20191018154615 52 360 0.0 0.0 0.00 0.00 0.00 82 1019.1
20191018153111 50 360 0.0 1.0 0.00 0.00 0.00 86 1018.7
20191018151553 49 360 0.0 1.0 0.00 0.00 0.00 88 1018.6
20191018150147 47 360 0.0 1.0 0.00 0.00 0.00 90 1018.4
20191018144546 46 360 0.0 2.0 0.00 0.00 0.00 90 1018.4
20191018143122 45 360 0.0 2.0 0.00 0.00 0.00 90 1018.6
20191018141614 45 360 0.0 2.0 0.00 0.00 0.00 89 1018.8
20191018140124 44 360 0.0 0.0 0.00 0.00 0.00 88 1018.6
20191018134529 44 360 0.0 0.0 0.00 0.00 0.00 89 1018.6
20191018133112 44 360 0.0 0.0 0.00 0.00 0.00 88 1018.5
20191018131537 45 360 0.0 1.0 0.00 0.00 0.00 88 1018.5
20191018130034 45 360 0.0 0.0 0.00 0.00 0.00 88 1018.3
20191018124553 45 360 0.0 1.0 0.00 0.00 0.00 89 1018.1
20191018123049 45 360 0.0 1.0 0.00 0.00 0.00 87 1018.2
20191018121523 46 360 0.0 2.0 0.00 0.00 0.00 85 1018.1
20191018120016 46 360 0.0 0.0 0.00 0.00 0.00 84 1018.1
20191018114516 47 360 0.0 2.0 0.00 0.00 0.00 82 1017.9
20191018113003 48 360 0.0 1.0 0.00 0.00 0.00 81 1017.8
20191018111639 49 360 0.0 2.0 0.00 0.00 0.00 79 1018.1
20191018110159 50 360 1.0 2.0 0.00 0.00 0.00 80 1018.4
20191018104716 49 360 1.0 2.0 0.00 0.00 0.00 81 1018.2
20191018103230 49 360 1.0 2.0 0.00 0.00 0.00 81 1018.0
20191018101643 49 360 1.0 2.0 0.00 0.00 0.00 80 1018.1
20191018100138 50 360 1.0 2.0 0.00 0.00 0.00 77 1018.2
20191018094739 51 360 0.0 2.0 0.00 0.00 0.00 76 1018.2
20191018093107 52 360 2.0 3.0 0.00 0.00 0.00 74 1018.3
20191018091618 54 360 1.0 2.0 0.00 0.00 0.00 71 1018.2
20191018090107 55 360 1.0 4.0 0.00 0.00 0.00 70 1018.0
20191018084609 55 360 1.0 3.0 0.00 0.00 0.00 68 1018.0
20191018083112 56 5 2.0 6.0 0.00 0.00 0.00 68 1017.9
20191018081600 56 360 3.0 8.0 0.00 0.00 0.00 68 1017.8
20191018080055 55 17 1.0 4.0 0.00 0.00 0.00 69 1017.7
20191018074638 54 30 2.0 5.0 0.00 0.00 0.00 71 1017.8
20191018073047 54 79 0.0 4.0 0.00 0.00 0.00 72 1017.7
20191018071550 53 28 1.0 3.0 0.00 0.00 0.00 73 1017.7
20191018070024 53 28 0.0 2.0 0.00 0.00 0.00 74 1017.7
20191018064529 51 28 1.0 3.0 0.00 0.00 0.00 79 1017.6